Location: *
(31.2983°S, 151.4094°E)
Time: 13:29:25
(UTC+00:00)

SL-24 DEB - Pass Details

Date: 25 August 2019
Orbit: 667 x 699 km, 92.0° (Epoch: 21 September)

Event Time Altitude Azimuth Distance (km) Brightness Sun altitude
Rises 18:49:07 0° 174° (S) 3,088 7.7 -19.8°
Reaches altitude 10° 18:51:24 10° 173° (S) 2,159 6.9 -19.3°
Maximum altitude 18:56:10 83° 86° (E) 697 4.3 -18.3°
Drops below altitude 10° 19:00:50 10° 357° (N) 2,109 6.8 -17.3°
Sets 19:03:03 0° 356° (N) 3,011 7.6 -16.9°
